Wind_Speed
14 14 14 15 15 16 16 17 17 19 20 21 23 24 25 26 27 28 29 30 29 29 30 30 30 30 30 30 30 30 29 27 26 25 24 24 23 23 23 23 23 24 24 25 25 26 26 27 27 28 28 28 28 29 29 30 30 30 30 30 30 30 30 30 31 31 32 32 31
14 14 15 15 15 16 16 17 18 19 21 23 24 26 27 28 28 29 30 30 30 30 30 30 30 30 30 29 29 28 28 26 25 24 24 23 23 23 23 23 23 24 24 25 25 26 27 27 28 28 28 28 28 29 29 30 30 30 30 31 31 30 29 29 31 32 32 32 32
15 15 15 15 16 16 17 18 20 21 23 24 26 27 28 29 30 30 31 31 31 31 30 30 30 29 29 28 27 26 26 25 24 24 23 23 23 23 23 23 24 24 24 25 26 26 27 28 28 28 28 28 29 29 30 30 30 30 30 31 31 30 29 29 30 31 30 30 31
15 16 16 16 16 17 18 20 21 23 24 26 27 28 29 30 30 31 31 31 30 30 30 29 29 29 28 27 26 24 23 23 23 23 24 23 23 23 24 24 25 25 25 26 26 27 28 28 28 29 29 29 30 30 31 31 31 30 30 30 30 30 29 29 30 29 29 29 30
16 16 16 16 17 18 19 21 23 24 26 27 28 28 29 29 30 30 30 29 29 28 28 28 27 27 27 26 24 23 22 22 22 23 23 24 24 24 25 25 26 27 27 28 28 29 29 29 29 29 30 30 30 31 32 32 31 30 30 30 29 29 30 30 29 29 29 29 29
16 17 17 17 18 19 21 22 24 25 26 27 27 28 28 28 29 28 28 27 27 26 26 26 26 25 25 24 23 23 22 22 22 23 23 24 25 25 26 27 28 29 29 30 30 31 31 31 30 30 30 30 31 32 33 32 31 30 29 29 29 29 29 29 29 29 28 29 29
17 17 18 19 20 21 23 24 25 25 26 26 26 26 27 27 27 27 26 26 25 25 24 24 24 23 23 22 22 22 22 22 23 23 24 25 26 27 28 29 30 31 31 32 32 32 32 32 30 30 30 30 30 31 32 31 31 30 29 29 29 29 29 29 29 28 28 29 31
17 18 19 20 21 22 23 24 24 24 25 25 25 25 25 25 26 25 25 25 25 25 24 24 23 22 21 20 20 20 21 22 24 25 26 27 27 28 29 30 31 32 32 33 33 33 33 32 30 30 30 29 29 29 29 30 30 30 30 30 30 29 29 29 30 29 29 30 32
19 19 20 21 22 22 23 23 23 23 24 24 24 24 24 24 24 25 25 25 25 25 25 24 23 22 21 21 20 21 21 23 24 25 26 27 28 29 29 30 31 31 32 33 33 33 32 31 30 30 30 29 29 29 30 30 30 31 31 31 30 30 30 29 30 30 30 30 32
20 20 21 21 22 22 22 22 22 22 23 23 23 23 23 24 24 24 25 25 25 26 26 26 25 25 24 24 23 23 23 24 25 26 27 27 28 29 29 30 30 31 32 32 32 32 31 31 30 30 31 31 31 32 32 31 31 32 32 31 31 32 32 31 30 30 31 31 32
20 21 21 21 22 22 22 22 22 22 23 23 23 24 24 24 24 24 25 25 26 26 26 26 27 27 27 27 27 26 26 26 26 27 27 28 29 29 29 30 30 31 31 32 31 31 30 30 30 31 32 32 32 32 32 32 32 33 33 33 33 33 34 34 33 31 31 31 33
20 21 21 22 22 22 22 23 23 23 23 24 24 24 25 25 25 25 26 26 27 27 27 27 27 28 28 28 28 28 28 28 28 28 28 29 30 30 30 31 31 31 32 32 31 31 30 30 30 31 32 33 32 31 32 32 32 33 33 34 34 34 34 35 35 33 32 31 32
21 22 22 22 23 23 23 24 24 25 25 25 26 26 26 27 27 27 27 27 28 28 28 28 28 28 28 28 28 28 28 28 28 28 29 29 30 30 31 31 31 32 32 32 31 31 30 30 31 32 33 33 32 32 32 32 32 32 33 34 34 34 34 35 36 35 33 32 32
22 23 24 24 24 25 25 25 26 26 27 27 27 28 28 28 29 29 29 29 29 29 29 29 29 28 28 28 28 28 28 28 28 28 29 29 30 30 31 31 32 32 32 32 32 31 31 31 32 32 33 33 33 33 33 33 33 33 33 34 34 35 35 36 35 35 34 33 34
24 25 25 26 26 27 27 27 28 29 29 29 29 30 30 30 30 30 30 30 30 30 30 29 29 29 28 28 28 28 28 28 28 29 29 30 30 31 31 31 32 32 32 32 32 32 32 32 33 33 33 33 34 34 34 34 34 34 34 35 35 36 36 36 35 35 34 34 34
26 27 27 28 28 28 29 29 30 30 30 31 31 31 31 31 31 31 31 30 30 30 30 29 29 29 29 28 28 28 28 28 28 29 29 30 30 31 31 32 32 32 32 33 33 33 33 33 32 32 33 34 34 35 35 35 35 35 35 36 36 36 37 37 36 36 35 35 34
28 28 29 29 30 30 30 30 31 31 31 31 31 31 31 31 31 31 31 30 30 30 30 29 29 29 29 29 28 28 28 28 29 29 29 30 31 31 32 32 32 33 33 33 33 34 34 33 33 33 33 33 34 35 36 36 36 37 37 36 37 37 38 38 37 37 37 36 35
29 30 30 30 31 31 31 31 31 31 31 31 31 31 31 31 31 31 31 30 30 29 30 30 29 29 29 29 29 29 28 28 29 29 30 30 31 32 32 33 33 33 33 34 34 34 34 34 34 34 33 34 34 35 36 36 37 37 37 37 38 38 38 38 38 37 36 35 35
30 31 31 31 31 31 31 31 31 31 31 31 31 31 31 31 31 31 31 31 30 29 29 30 30 30 30 30 30 30 29 29 30 30 31 31 32 33 33 34 34 34 34 34 34 34 34 34 34 34 34 34 34 35 35 36 36 37 37 38 38 38 38 38 38 37 36 35 35
31 31 31 31 31 31 31 31 31 31 31 31 31 31 31 31 31 31 31 31 30 30 30 30 30 31 31 31 31 31 30 30 30 31 32 32 33 33 34 34 35 35 34 34 35 35 35 34 34 34 34 35 35 36 36 36 36 36 37 37 37 37 37 37 37 36 36 35 35
31 32 32 32 31 31 31 31 30 30 30 30 30 31 31 31 31 31 31 31 30 30 30 30 30 30 31 31 31 31 31 31 31 31 32 33 33 34 34 34 35 35 35 35 35 35 35 34 34 34 35 35 35 36 36 36 36 36 36 36 36 36 36 36 36 35 35 35 36
32 32 32 32 31 31 30 30 30 30 30 30 30 30 31 31 31 31 31 31 31 30 30 30 30 30 30 30 31 32 32 32 31 32 32 33 34 34 34 34 34 34 35 35 35 35 34 34 34 34 35 35 35 36 36 36 36 36 36 36 36 36 36 36 35 34 34 35 35
32 32 32 31 31 30 30 30 29 30 30 30 30 31 31 31 31 31 31 31 31 31 30 30 30 30 31 31 31 32 32 33 33 33 33 33 34 35 35 34 34 34 34 35 34 34 34 34 34 34 34 34 35 35 35 35 35 35 35 36 36 36 36 36 35 35 34 34 34
32 32 31 31 30 30 30 30 30 30 30 30 31 31 31 31 31 32 32 32 32 32 31 31 31 31 32 32 32 32 32 33 33 34 34 34 34 35 35 35 34 34 33 33 33 32 31 31 31 31 31 32 32 33 33 34 34 34 34 35 35 35 35 35 35 34 35 35 35
32 31 31 30 30 30 30 30 30 30 31 31 31 31 31 31 32 32 32 32 32 33 33 33 32 32 32 31 31 31 31 31 32 34 35 35 35 35 35 35 34 33 32 32 32 31 29 28 28 29 29 30 31 32 33 34 33 33 33 33 33 33 33 33 33 33 34 34 35
31 31 30 30 29 30 30 30 30 30 31 31 32 32 32 32 32 32 32 33 33 33 33 33 32 31 31 30 30 30 31 31 31 33 34 35 36 36 35 34 33 32 32 33 32 30 29 29 29 29 30 31 32 32 32 32 32 32 32 32 31 31 31 31 31 32 32 33 33
31 30 30 29 29 30 30 30 30 31 31 32 32 32 32 33 33 33 33 33 33 34 33 33 32 31 29 29 29 30 31 31 32 32 34 35 35 36 36 35 33 33 33 33 31 30 30 30 30 30 30 31 31 32 32 31 32 32 32 31 31 30 30 31 31 32 32 33 33
30 29 29 29 30 30 30 30 31 31 31 32 32 33 33 33 34 34 33 33 33 33 33 32 31 29 28 28 29 30 32 32 33 33 33 34 34 35 34 33 33 33 33 32 31 30 31 31 31 31 31 30 31 32 32 32 32 31 31 31 31 30 30 31 31 31 31 31 31
29 29 29 29 30 30 30 30 30 31 31 32 32 33 33 34 34 33 33 33 33 32 31 31 30 29 29 29 30 32 33 33 33 32 32 32 33 33 33 33 33 33 33 32 31 31 32 32 32 32 31 31 30 30 29 30 30 29 29 29 30 30 30 30 30 30 30 29 29
29 29 29 29 30 30 30 30 30 31 31 32 32 33 33 33 33 33 32 32 32 31 31 31 31 30 31 31 32 32 32 32 32 31 31 32 33 33 33 33 33 34 34 32 32 32 32 32 32 31 31 30 30 30 30 30 29 29 28 28 29 29 29 30 30 31 30 29 29
29 29 29 29 29 30 30 31 31 31 31 32 32 33 33 33 32 32 32 31 32 32 32 31 31 32 32 32 32 32 32 32 31 31 31 31 32 33 33 34 34 35 34 33 32 32 32 32 31 31 31 30 30 30 30 30 29 29 28 28 28 29 30 30 30 29 29 29 30
29 29 29 29 30 30 30 31 31 31 31 31 32 32 32 32 32 32 32 31 31 32 32 31 31 32 32 32 32 32 31 31 31 31 31 31 31 33 34 34 34 34 33 32 31 31 31 31 31 31 31 31 30 31 31 31 31 30 30 30 30 30 30 30 29 29 29 30 31
29 29 29 29 30 30 30 31 31 31 31 31 31 31 31 32 32 32 31 31 30 30 30 30 31 31 31 31 31 32 32 32 31 31 32 32 32 33 33 33 33 32 32 31 31 31 31 31 32 31 31 31 31 31 31 31 30 30 29 29 29 29 29 30 30 30 31 32 32
29 30 29 29 29 30 30 30 30 30 30 30 30 31 31 31 32 31 31 31 30 29 29 30 30 30 30 31 31 31 32 32 32 32 32 32 32 33 33 32 31 31 31 31 31 32 32 32 32 32 32 31 31 30 30 30 30 29 28 28 29 29 30 30 31 31 32 32 31
29 29 29 29 29 29 30 30 30 30 29 29 30 31 31 31 31 31 31 31 31 30 30 30 30 30 30 30 31 31 31 32 32 32 32 32 32 32 32 32 32 32 32 32 32 32 32 32 32 32 31 31 30 30 29 29 28 28 28 29 29 29 30 30 29 29 29 29 28
28 28 28 29 29 29 29 30 30 30 29 29 30 31 31 31 31 30 30 30 30 30 30 30 30 30 30 30 30 30 30 31 32 32 32 32 31 32 32 33 33 33 32 32 32 32 32 32 32 31 31 31 30 29 28 28 27 27 27 28 28 28 28 27 27 26 27 27 27
27 27 28 28 29 29 29 29 29 29 29 30 30 30 31 31 31 31 30 29 29 30 30 31 30 30 30 30 31 31 31 30 31 32 32 31 31 31 32 32 33 33 32 32 31 31 31 31 31 31 31 30 30 29 28 27 26 26 26 26 27 27 27 25 25 26 26 27 27
27 27 27 28 28 29 29 29 29 29 30 30 31 31 31 31 31 30 29 28 28 29 30 31 31 31 31 31 32 32 32 31 30 30 31 32 31 31 31 32 32 32 32 31 31 31 31 32 32 31 31 30 30 29 27 25 25 25 26 26 26 26 25 24 24 24 25 25 26
27 27 27 27 28 29 29 29 29 29 30 31 31 31 31 30 30 29 29 28 27 28 30 31 32 32 32 32 32 32 32 32 31 30 31 31 31 31 31 31 32 32 32 32 32 32 32 32 32 31 30 30 29 28 27 25 24 25 26 25 25 24 23 22 22 22 23 24 24
27 27 27 27 27 28 29 29 29 29 30 30 31 31 31 31 30 29 29 28 28 28 29 31 32 32 32 32 32 33 33 33 32 31 31 31 31 31 31 31 31 32 33 32 32 32 32 32 31 31 30 29 29 28 26 25 24 24 24 22 21 20 20 20 21 21 22 22 23
27 27 27 27 27 28 28 29 30 30 30 30 30 30 30 30 30 30 30 29 30 30 30 31 32 32 32 32 32 33 33 33 33 32 31 31 31 31 30 30 31 32 33 33 32 32 31 31 30 30 29 29 28 27 25 24 23 23 22 21 20 20 20 20 21 21 22 22 22
Wind_Direction
312 312 311 311 312 313 315 316 319 321 323 323 323 321 320 318 315 313 312 312 311 309 308 306 304 301 298 295 293 292 293 294 293 292 291 289 289 289 289 289 287 286 284 284 282 280 277 274 270 266 262 260 258 258 258 257 257 255 254 252 251 251 250 249 249 249 249 247 247
308 308 308 310 311 313 315 317 318 320 321 321 321 319 318 316 314 313 313 313 313 313 312 309 306 303 299 296 293 291 292 292 292 291 290 289 289 289 288 288 287 286 286 285 283 280 278 275 270 266 262 260 258 257 257 257 256 255 253 252 251 251 250 249 249 250 249 248 248
305 305 306 308 311 314 316 317 318 318 319 319 318 317 316 314 313 313 314 315 316 316 315 312 309 305 301 296 292 290 290 290 290 289 288 288 288 288 289 288 288 288 287 286 285 282 280 276 271 266 262 260 259 257 257 257 256 254 252 252 251 250 248 248 249 249 249 248 247
304 304 305 308 311 314 317 317 318 318 317 317 316 315 313 313 313 314 315 316 317 318 317 315 312 307 302 296 291 288 286 286 286 286 286 287 288 289 290 290 290 290 289 288 287 285 282 278 272 267 263 261 259 258 257 257 255 253 251 251 250 249 247 247 248 248 248 247 246
306 306 307 310 312 315 316 317 318 317 316 316 315 314 313 313 314 315 316 317 318 319 319 318 315 310 304 297 291 286 283 283 284 285 286 287 289 290 291 291 291 290 290 289 288 287 284 280 273 267 263 262 259 258 258 258 256 253 252 251 250 248 248 248 247 248 248 247 246
310 310 311 313 314 316 316 317 317 316 315 314 314 313 313 314 314 315 317 318 318 320 321 320 318 314 308 301 294 287 283 283 284 286 289 290 291 291 291 291 290 290 289 289 288 287 284 280 274 269 265 263 261 260 260 259 256 254 252 251 250 249 248 248 248 247 247 247 246
313 313 314 315 316 316 316 316 316 315 314 313 313 313 313 314 315 315 316 317 318 319 321 322 321 319 315 308 301 294 289 287 288 290 292 293 293 292 292 291 290 289 288 288 287 286 284 280 275 271 268 266 264 263 262 260 257 254 253 252 252 251 250 249 249 248 247 247 247
316 316 316 316 316 316 316 316 315 314 313 313 312 313 313 314 314 315 316 317 317 319 320 321 322 321 319 314 307 301 296 294 293 293 294 294 294 293 292 291 290 289 289 288 287 286 285 282 277 274 271 269 266 265 263 261 259 256 254 254 254 254 252 251 251 250 248 248 248
318 318 317 317 317 317 317 316 315 314 313 312 312 312 313 313 314 315 316 317 317 318 319 319 320 319 317 314 309 304 300 297 295 295 294 294 294 294 293 292 292 291 290 290 289 288 287 283 280 276 273 271 268 267 266 264 261 259 257 256 256 256 255 253 252 251 250 249 248
321 320 319 319 319 318 317 316 315 313 313 312 312 312 312 313 314 315 316 317 317 317 317 317 317 316 314 312 309 306 303 301 299 298 297 297 296 296 295 294 294 293 292 292 291 289 288 284 281 278 276 274 272 270 269 267 264 261 259 258 258 258 257 255 253 252 251 250 249
323 322 322 321 321 320 318 317 315 314 313 312 312 312 313 313 314 315 316 316 315 315 314 315 315 314 312 311 309 308 307 305 304 303 302 301 300 299 298 297 296 295 295 295 293 291 287 284 282 280 279 277 275 273 272 269 266 264 262 261 260 259 258 258 255 253 252 251 251
324 324 324 323 323 321 320 318 317 316 315 314 314 314 314 314 315 315 315 315 314 313 313 313 312 312 310 309 309 309 308 308 308 307 305 303 302 301 300 300 299 298 297 297 295 292 288 285 282 281 281 280 277 275 273 271 268 266 264 264 262 261 260 260 258 256 254 253 252
325 325 325 325 324 323 322 321 319 318 317 317 316 316 316 315 316 316 315 315 314 313 312 312 311 311 310 309 309 309 309 309 309 307 305 304 303 302 301 300 299 299 298 298 296 293 290 286 284 283 282 281 279 276 274 272 270 268 266 266 264 263 262 261 261 259 257 255 254
326 326 326 326 326 325 324 323 322 321 320 319 319 318 317 316 316 316 316 315 315 314 313 313 312 312 311 311 310 310 310 309 308 307 305 303 302 301 300 299 299 299 298 298 296 294 291 288 286 285 283 281 280 278 276 274 271 269 267 266 265 264 264 263 263 261 259 257 256
326 326 327 327 327 326 326 325 324 322 321 320 320 319 318 317 317 317 317 316 316 316 315 315 314 314 313 312 312 311 310 309 308 306 304 302 301 300 299 299 299 299 298 298 296 294 292 290 288 286 284 282 282 281 279 276 274 271 269 268 267 266 266 265 264 263 261 259 258
326 327 328 328 328 327 326 325 324 322 321 320 319 318 317 317 317 317 317 317 317 317 317 317 316 316 314 313 312 312 311 309 307 305 303 301 301 300 300 299 298 298 298 297 296 294 293 290 288 286 285 284 283 282 281 279 277 274 272 270 269 268 267 267 266 264 263 261 259
327 327 328 328 327 327 326 324 323 321 320 319 318 317 316 316 316 317 317 318 318 318 317 317 317 316 315 314 313 312 310 308 305 303 301 300 300 299 299 298 298 297 297 296 295 293 292 291 289 287 285 284 283 282 281 280 278 276 274 273 271 270 269 268 267 266 265 264 262
327 328 328 327 327 326 324 323 321 320 318 317 316 315 315 316 316 317 318 318 319 318 317 317 317 316 314 313 313 311 309 306 304 302 300 299 299 298 298 297 297 297 296 295 293 292 292 291 290 289 286 285 283 282 281 281 279 278 276 275 274 273 272 271 270 268 267 265 264
327 327 327 327 325 324 322 321 319 318 317 316 315 314 315 316 317 317 318 318 319 319 317 316 315 315 314 312 312 310 308 305 303 302 300 299 299 298 297 297 297 296 295 294 293 292 291 290 290 288 287 285 284 282 281 280 279 278 277 276 275 274 274 273 272 271 269 267 266
327 327 326 325 324 322 321 319 318 316 315 314 314 315 315 317 318 318 318 319 319 319 317 315 314 313 312 312 311 309 307 305 303 301 300 300 299 298 297 297 296 296 295 293 292 291 290 290 289 288 287 285 283 282 281 280 279 278 277 276 276 275 275 274 273 272 271 269 268
326 325 325 323 322 321 319 318 317 316 315 315 316 316 317 319 319 319 319 319 319 318 316 314 312 311 311 310 309 308 307 305 302 301 300 299 298 297 297 297 296 295 294 293 292 291 290 289 288 287 286 285 283 282 281 280 279 278 277 277 276 276 276 275 274 273 272 270 269
324 324 323 322 320 320 319 318 317 317 317 317 318 319 319 320 320 319 319 319 318 316 314 312 311 310 309 308 307 306 306 304 302 300 299 298 298 297 297 296 295 294 293 292 291 291 290 289 288 287 286 284 283 282 281 280 279 278 278 278 277 277 277 276 275 273 272 271 270
323 322 321 321 320 320 320 319 319 319 319 319 319 320 320 319 320 319 319 318 316 314 313 311 310 309 308 307 306 305 304 303 302 301 300 298 297 297 297 296 294 293 292 292 291 291 290 290 289 288 286 285 284 283 282 280 279 278 278 277 277 277 277 276 274 273 272 271 269
322 322 321 321 321 321 321 321 321 321 320 320 320 320 320 319 319 319 318 316 315 314 312 311 309 308 307 306 305 303 302 301 301 300 300 299 298 297 297 296 294 293 291 291 291 290 289 288 288 287 286 285 284 283 282 280 278 277 276 276 276 275 275 274 272 271 270 269 268
322 322 322 322 323 322 322 322 322 321 321 320 321 320 319 319 318 317 316 315 314 313 312 311 310 308 307 306 304 302 301 299 299 299 299 299 298 297 297 296 294 293 292 291 291 290 288 286 285 284 284 284 283 282 281 280 278 276 275 273 273 273 272 272 271 269 268 267 266
323 323 324 324 324 324 323 323 322 321 321 321 320 320 319 318 317 316 314 313 312 312 311 310 309 308 306 304 302 301 300 299 298 297 297 297 298 297 297 295 294 292 292 292 291 290 288 285 284 284 284 284 284 283 282 280 279 278 276 274 273 271 271 270 270 270 269 267 266
324 325 325 325 325 324 324 323 322 321 320 320 319 318 318 317 316 314 313 312 311 311 310 309 308 306 305 303 301 300 299 298 298 297 297 296 296 296 296 295 293 292 292 292 291 290 289 288 287 286 286 285 285 284 283 282 281 280 278 277 275 273 271 270 270 270 271 271 268
326 326 326 326 325 324 323 322 321 320 319 319 318 317 316 316 314 313 311 310 310 309 309 308 307 306 304 302 300 299 299 298 298 297 297 296 295 295 294 294 293 293 293 292 292 291 290 290 289 289 288 287 286 285 284 283 282 280 279 277 277 275 273 273 273 273 272 270 268
327 327 327 325 324 323 322 321 319 318 318 317 316 316 315 313 312 311 310 309 308 308 307 306 306 304 302 300 299 299 299 298 298 297 297 296 295 294 293 293 293 293 293 292 292 292 292 291 291 290 289 288 287 285 283 282 281 279 278 277 277 276 276 275 276 276 275 273 272
327 327 325 324 322 321 320 319 318 317 317 316 315 314 313 311 310 309 308 308 307 306 305 305 304 302 300 299 299 299 298 298 298 297 296 295 294 294 293 293 293 293 293 293 293 293 293 292 291 291 290 289 287 285 283 282 281 280 278 278 278 278 278 278 279 279 279 279 279
327 326 324 322 320 319 318 317 317 316 315 314 313 311 310 309 308 307 307 306 305 305 305 304 302 300 299 299 299 298 297 297 297 297 295 295 294 294 294 294 294 294 294 294 294 294 293 293 292 291 291 290 288 286 285 283 282 281 280 279 279 280 281 281 281 281 281 282 283
326 325 323 320 318 317 316 316 315 314 313 312 311 309 308 307 306 306 305 305 305 305 304 303 302 301 300 300 299 298 298 297 297 296 296 295 294 294 294 294 294 294 294 294 294 294 294 294 293 292 292 291 290 288 286 285 283 282 281 281 281 281 281 282 282 282 282 282 281
324 323 321 318 317 316 315 314 314 313 312 310 309 308 306 306 306 305 305 305 305 304 303 302 301 300 300 300 299 299 298 297 297 296 296 295 295 294 294 294 294 294 294 294 295 295 295 294 294 293 293 292 291 289 288 286 285 283 282 281 281 282 282 282 282 282 282 281 279
323 321 319 317 315 314 313 313 312 311 310 309 307 306 306 306 306 306 306 306 305 303 302 301 300 299 298 298 298 297 297 297 297 297 297 296 296 295 294 293 293 294 294 295 295 295 295 295 295 294 294 293 292 290 289 287 285 284 282 282 282 283 283 283 282 282 281 280 278
321 319 317 315 314 313 312 311 311 310 309 308 307 307 306 306 306 305 306 306 305 303 301 300 299 299 298 298 297 297 297 297 297 297 297 297 297 296 294 294 294 294 295 296 296 296 296 295 295 295 295 294 293 291 289 288 286 284 283 283 284 284 283 283 283 281 280 279 278
318 316 315 313 313 312 311 310 310 310 309 307 307 307 307 307 306 306 306 306 305 303 302 301 301 300 300 299 299 298 298 297 298 298 298 297 297 296 295 294 294 295 296 297 297 297 296 296 296 296 295 295 293 292 290 288 287 286 285 284 284 284 284 284 282 280 279 278 278
315 314 313 312 311 311 310 309 309 308 308 307 307 307 307 307 307 307 307 306 305 303 302 302 302 301 301 301 300 299 298 298 298 298 298 298 297 296 295 295 295 296 297 297 297 297 297 296 296 296 296 295 294 292 291 289 287 286 286 285 284 285 285 283 281 279 278 278 278
313 312 311 310 310 309 309 309 308 308 307 307 307 307 307 307 307 307 306 306 304 303 302 302 302 301 301 301 301 300 300 299 298 298 298 298 297 296 295 295 295 296 296 297 297 297 297 297 296 296 296 294 293 292 290 288 287 287 287 287 287 285 283 281 279 279 279 279 279
311 311 310 309 308 308 308 308 307 307 307 307 307 307 307 307 306 306 305 305 303 302 301 301 301 301 301 302 302 302 301 300 300 299 298 297 296 295 295 294 294 295 296 296 297 297 296 296 296 296 295 293 292 291 289 287 287 287 288 288 287 285 283 281 280 280 280 280 280
310 310 309 308 308 308 308 307 307 306 306 306 307 307 307 306 305 305 305 304 303 302 301 301 301 301 302 303 303 302 302 301 301 299 298 296 295 295 294 293 293 294 295 296 297 297 296 296 296 296 295 293 291 289 288 287 288 289 289 288 287 286 285 285 284 283 282 282 282
309 309 309 308 308 308 307 307 306 306 306 306 306 305 305 306 305 305 305 304 303 303 302 301 301 301 302 303 303 302 302 301 301 299 298 297 296 295 294 293 293 294 295 296 296 296 296 296 296 296 295 293 291 290 289 290 291 292 292 291 290 289 288 288 287 286 284 283 281
Height
829 828 827 826 825 824 823 823 822 821 820 819 818 817 816 815 814 812 811 810 809 808 806 805 804 803 802 802 802 801 801 801 801 800 800 800 799 799 798 798 797 797 796 796 795 795 795 794 794 793 793 792 792 791 791 790 790 790 789 789 788 788 787 787 786 786 786 786 786
828 827 826 825 824 823 822 821 820 820 819 818 817 816 815 814 812 811 810 809 807 806 805 803 802 801 800 800 800 800 800 799 799 799 798 798 797 797 797 796 795 795 795 794 794 793 792 792 791 791 790 790 789 789 788 787 787 787 786 785 785 785 784 784 783 782 782 782 782
826 826 825 824 823 822 821 820 820 819 818 817 816 815 814 812 811 810 808 807 806 805 803 802 800 799 798 798 798 798 798 798 797 797 797 796 796 795 795 795 794 793 793 792 791 791 790 790 789 788 788 787 786 785 785 784 784 783 783 781 781 781 781 780 779 779 779 779 779
825 825 824 823 822 821 820 819 818 818 817 816 815 813 812 811 810 808 807 805 804 803 802 800 799 797 796 796 795 795 796 796 795 795 795 794 794 794 793 793 792 791 790 790 789 789 788 787 787 786 785 784 783 782 781 780 780 780 779 778 778 778 777 776 775 776 776 775 775
824 824 823 822 821 820 820 819 817 816 815 814 813 812 810 809 808 807 805 804 803 802 800 799 797 796 795 794 794 794 794 794 794 793 793 792 792 791 791 790 790 789 788 788 787 786 785 785 784 783 782 781 780 779 778 778 778 777 776 775 775 774 774 773 772 772 772 772 771
823 823 822 821 820 819 818 817 816 815 814 813 812 810 809 808 807 805 804 803 802 800 799 798 796 795 794 793 792 792 792 792 792 792 791 790 790 790 789 788 788 787 786 785 785 784 783 782 781 780 779 779 777 776 775 775 775 775 774 773 772 771 771 770 769 769 769 768 768
822 822 821 820 819 818 817 816 815 814 813 811 810 809 808 807 805 804 803 802 800 799 798 797 795 794 793 792 791 791 791 790 790 790 790 789 788 787 787 786 785 785 784 783 782 781 781 780 779 778 777 776 775 774 773 773 773 772 771 770 769 769 768 767 766 766 766 765 765
822 821 820 819 818 817 816 815 814 812 811 810 809 808 806 805 804 803 802 800 799 798 796 795 794 793 792 791 790 790 790 789 789 788 787 787 786 785 784 784 783 782 781 780 780 779 778 778 777 776 775 774 773 771 771 770 770 769 769 768 767 766 765 765 764 763 763 762 762
820 820 819 818 817 816 815 814 812 811 810 809 808 806 805 804 803 801 800 799 797 796 795 794 793 792 791 790 789 789 788 787 786 786 785 784 784 783 782 781 780 779 778 778 777 776 776 775 775 773 772 771 770 769 768 768 767 766 765 765 764 763 762 762 761 760 760 759 758
819 818 817 816 815 815 813 812 811 810 809 807 806 805 804 803 801 800 799 797 796 795 794 793 791 790 790 789 788 787 786 785 784 784 783 782 781 780 779 778 777 776 775 775 775 774 773 772 771 770 769 768 767 766 765 765 765 764 762 762 761 760 759 759 758 758 757 756 755
818 817 816 815 814 813 812 811 810 808 807 806 805 804 802 801 800 799 797 796 795 793 792 791 790 789 788 786 785 785 784 783 782 781 780 779 778 777 776 775 775 774 773 772 772 771 770 770 768 767 765 765 764 763 762 762 761 760 759 758 758 757 756 755 755 755 754 753 752
817 816 815 814 813 812 810 809 808 807 805 804 803 802 800 799 798 797 795 794 793 791 790 789 788 787 786 785 784 783 782 781 780 779 778 776 775 775 774 773 772 771 770 769 769 769 768 766 765 764 763 762 761 760 760 759 758 757 756 755 755 754 753 751 751 751 751 750 749
816 815 814 813 812 810 809 808 806 805 804 803 801 800 799 798 796 795 794 792 791 790 789 787 786 785 784 783 782 780 780 779 777 776 775 774 773 772 771 770 769 768 767 766 766 765 765 763 762 761 760 759 758 757 757 756 755 754 753 752 751 750 749 748 748 748 748 747 746
815 813 812 811 810 809 808 806 805 803 802 801 800 798 797 795 794 793 792 790 789 788 786 785 784 783 782 781 780 779 778 776 775 774 773 772 771 770 769 767 766 765 765 764 763 763 762 760 759 758 757 756 755 754 754 753 752 751 750 749 748 747 746 745 745 745 744 744 743
813 812 811 810 808 807 806 804 803 801 800 799 797 796 795 794 792 791 790 789 787 786 785 783 782 781 780 779 778 777 775 775 773 772 771 769 768 767 766 765 764 763 762 761 760 760 759 757 756 755 754 753 752 751 750 750 749 748 747 746 745 743 742 741 741 741 741 740 739
811 810 809 808 806 805 804 803 801 800 798 797 795 795 793 792 790 789 788 787 785 784 783 781 780 779 778 777 776 775 774 772 771 770 768 767 766 765 764 763 761 760 760 759 757 756 755 755 754 753 751 750 749 748 747 746 745 745 743 742 741 740 739 738 738 738 737 737 736
810 808 807 806 805 803 802 801 800 798 796 795 794 793 791 790 789 787 786 785 784 782 781 780 779 777 776 775 774 773 772 770 769 768 766 765 764 762 761 760 759 758 757 756 755 754 752 752 751 750 749 748 746 745 744 743 742 741 740 739 738 737 736 735 735 734 734 734 733
808 807 805 805 803 802 800 799 798 796 795 794 792 791 790 788 787 786 785 783 782 780 779 777 776 775 774 772 771 770 770 768 766 765 764 763 761 760 759 757 756 755 754 753 752 751 750 749 748 747 746 745 743 742 741 740 738 737 736 735 734 733 732 732 731 731 731 731 730
806 805 804 803 801 800 799 797 796 795 793 792 790 789 788 787 785 784 782 781 780 779 777 775 774 773 772 770 769 768 767 766 764 763 761 760 759 757 756 755 753 752 751 750 749 748 747 746 745 744 743 742 740 739 738 736 735 734 733 732 730 730 729 729 728 728 728 728 727
805 804 802 801 800 799 797 796 794 793 791 790 789 787 786 785 783 782 780 779 778 777 775 774 772 771 770 768 767 766 765 764 762 760 759 757 756 755 753 752 750 749 748 747 746 745 744 743 742 741 740 738 737 735 734 733 732 730 730 728 727 726 726 725 725 725 725 724 724
803 802 801 800 798 797 795 794 792 791 790 788 787 785 784 783 781 780 779 777 776 775 773 772 770 769 767 766 765 763 762 761 760 758 756 755 753 752 750 749 748 746 745 744 743 742 741 740 739 738 736 735 734 732 731 730 729 727 726 725 725 724 723 722 722 722 721 720 720
802 800 799 798 796 795 794 792 790 789 788 786 785 784 782 781 779 778 777 775 774 773 771 770 769 767 766 764 763 761 760 758 757 755 754 752 750 749 748 747 745 744 742 741 740 739 738 737 736 735 733 732 730 729 728 727 726 724 723 722 721 720 720 719 719 718 718 717 716
800 799 797 796 795 793 791 790 789 787 786 785 783 782 780 779 777 776 775 773 772 770 769 768 767 765 764 762 761 759 757 755 754 752 751 750 748 746 745 744 743 741 740 738 737 736 735 734 732 731 730 729 727 726 725 724 723 721 720 719 718 717 716 716 715 715 714 714 713
798 797 795 794 792 791 790 788 787 785 784 783 781 780 778 777 775 774 772 771 770 769 767 766 765 763 761 760 758 757 755 753 751 749 748 747 745 744 742 741 740 739 737 736 735 734 733 732 730 728 727 726 725 723 721 720 720 718 717 716 715 714 713 712 712 711 710 710 709
796 795 794 792 791 789 788 786 785 784 782 780 779 778 776 775 773 772 770 769 767 766 765 764 762 760 759 757 755 754 753 751 749 747 745 744 742 741 740 739 737 736 735 733 732 732 731 730 729 727 725 724 722 720 719 717 716 715 714 713 712 710 710 708 708 707 706 706 705
795 793 792 790 789 788 786 785 783 782 780 779 777 776 774 773 771 770 769 767 765 764 763 761 760 758 757 755 753 751 750 749 747 745 743 741 740 738 737 736 735 733 732 730 730 729 728 727 726 725 724 722 720 718 716 715 714 712 711 710 709 708 706 705 704 703 703 702 701
793 791 790 789 787 786 784 783 781 780 778 777 775 774 772 771 770 768 767 765 763 762 760 759 758 756 755 753 751 749 747 746 745 743 741 740 738 736 734 733 732 730 729 728 727 726 725 725 724 722 721 720 718 716 714 712 711 710 709 708 706 705 704 702 701 700 699 698 697
791 790 788 787 785 784 783 781 780 778 777 775 774 772 770 769 768 766 765 763 762 760 758 757 755 754 752 750 749 747 745 744 742 740 739 737 735 734 732 730 729 727 726 726 725 724 723 721 720 720 719 717 716 714 712 710 708 707 706 705 704 702 701 700 698 697 696 695 694
790 788 787 785 784 782 781 780 778 777 775 774 772 770 769 767 766 765 763 761 760 758 757 755 753 752 750 748 746 744 742 741 740 738 736 735 733 731 730 728 726 725 724 723 722 721 720 719 717 716 715 715 713 711 709 707 706 704 703 701 700 699 698 697 695 694 693 692 691
788 787 785 784 782 780 779 778 776 775 774 772 770 769 767 766 764 763 761 760 758 756 755 753 751 749 747 746 744 742 740 738 737 736 734 732 730 729 727 725 724 722 721 720 720 718 717 716 715 713 712 711 710 709 707 705 703 701 700 698 697 696 695 694 693 692 691 690 689
787 785 784 782 781 779 778 776 775 774 772 770 769 767 766 764 763 761 760 758 756 754 752 751 749 747 745 743 742 740 738 736 735 733 732 730 728 726 724 723 721 720 718 718 717 715 714 713 712 710 709 708 707 706 704 702 700 699 697 696 695 694 693 692 690 690 689 688 687
785 784 782 781 779 778 776 775 773 772 770 769 767 766 764 762 761 759 758 756 754 752 750 748 746 744 742 740 739 737 735 734 732 731 729 728 726 724 722 720 718 717 716 715 714 713 711 710 709 708 706 705 704 703 701 700 698 696 695 693 692 691 690 689 688 687 686 685 685
784 782 781 780 778 776 775 773 772 770 769 767 766 764 762 760 759 757 755 754 752 750 748 746 744 742 740 738 736 734 733 731 730 728 727 725 724 722 719 717 716 714 713 712 711 710 709 707 706 705 704 703 701 700 698 696 695 694 692 690 690 689 688 687 686 685 684 683 682
782 781 780 778 776 775 773 772 770 769 767 765 764 762 760 759 757 755 753 751 750 748 746 744 742 740 738 736 735 732 730 728 727 726 724 723 721 719 717 715 713 712 711 710 709 707 706 705 704 702 701 700 698 697 695 694 692 691 689 688 687 686 685 684 683 682 681 680 679
781 780 778 776 775 774 772 770 769 767 766 764 762 760 758 757 755 753 751 749 747 745 743 741 740 738 736 734 732 731 729 726 725 723 722 720 719 717 715 712 710 709 709 708 706 705 704 702 701 700 698 697 695 694 692 691 689 688 686 685 684 683 682 681 680 679 678 677 677
780 778 777 775 774 772 770 769 767 765 764 762 760 758 756 754 753 751 749 747 745 742 740 738 737 735 733 731 730 728 727 725 723 721 719 718 716 714 712 710 708 706 706 705 704 702 701 700 698 697 696 694 693 691 690 688 686 685 684 683 681 680 679 678 677 676 675 675 675
778 777 775 774 772 770 769 767 765 764 762 760 758 756 754 752 750 748 747 745 743 740 738 736 734 733 731 729 727 726 724 723 721 719 717 715 714 712 710 707 705 704 703 702 701 700 698 697 696 695 693 692 690 688 687 685 684 683 681 680 679 677 676 676 675 674 673 672 672
776 775 774 772 770 769 767 765 764 762 760 758 756 754 752 750 748 746 745 744 741 739 736 734 732 730 729 727 725 723 721 720 719 718 715 713 712 710 708 705 703 701 700 700 699 697 696 695 693 692 691 690 688 686 685 683 681 680 679 677 676 675 674 673 673 672 671 670 670
775 774 772 770 769 767 765 763 762 760 758 755 754 752 750 748 746 744 743 741 740 738 735 732 730 728 727 725 723 721 719 718 717 715 714 711 709 708 706 704 701 699 698 697 696 695 693 692 691 690 688 687 685 684 682 681 679 678 676 675 674 673 672 671 670 670 669 668 667
773 771 770 769 767 765 763 761 760 758 756 754 752 750 748 746 745 742 741 739 738 736 734 731 728 726 725 723 721 719 716 715 714 713 711 709 707 705 704 702 699 697 695 695 694 692 691 690 688 687 686 685 683 681 680 679 677 675 674 673 672 670 670 669 668 667 666 665 665
771 770 768 767 765 764 762 759 757 755 754 752 750 748 746 745 743 741 739 737 735 734 732 729 726 724 723 722 720 717 715 712 710 710 708 707 705 703 701 700 697 695 693 692 691 690 688 687 686 685 683 682 680 679 678 676 675 673 672 671 670 669 668 667 666 665 664 663 662